COSMOS 2251 DEB, 35663

Orbit data source: Space-Track

COSMOS 2251 DEB, 35663 is space debris in LEO originally from a launch on Wed, 16 Jun 1993 UTC launched from the Plesetsk Missile And Space Complex (PKMTR). The debris from Iridium 33, an American commercial communications satellite, has been tracked extensively since its accidental collision with the defunct Russian satellite Cosmos 2251 in 2009. This event, occurring at high speed in low Earth orbit (LEO), generated thousands of pieces of space debris, significantly increasing the risk of further collisions. The Iridium 33 debris cloud has impacted space traffic management and orbital debris mitigation strategies, making it a subject of ongoing study in space situational awareness.

Loading next visibility...
Identifier
35663, 1993-036APE
Orbit
LEO
Country
Flag of CISCIS
Related business
Manufacturer
Unknown
Mission
Spacecraft
Bus & Motor
Unknown
Mass
Unknown
Launch date (UTC)
1993-06-16 (33 years ago)
Launch vehicle
Unknown
Launch site
Plesetsk Missile And Space Complex (PKMTR)
Object type
Payload
Rocket body
Debris
Shape & HBR
Unknown shape, 0.1 m
Radar Cross Section
Small (<0.1 m²)

Expand to show TLE details & history
Last TLE update: 1 day ago

TLE from 1 day ago
0 COSMOS 2251 DEB
1 35663U 93036APE 26036.21615869  .00011389  00000-0  20519-2 0  9990
2 35663  74.0194  19.5767 0003480  60.1481 300.0033 14.66610863741800
Epoch: 2026-02-05T05:11Z
TLE epoch observation values (Epoch: 2026-02-05T05:11:16.110Z)
Latitude
-0.0001°
Longitude
166.38798°
Altitude
673.329 km
Speed
7.521 km/s
True Right ascension
01h 18m 18s
True Declination
0° 00' 00"
Sunlit
Object was in daylight at epoch
Visualization orbit readout
Latitude
Unknown
Longitude
Unknown
Altitude
Unknown
Speed
Unknown
Apparent Right ascension
Unknown
Apparent Declination
Unknown
Sunlit
N/A
Visualization observer readout
Local Sidereal Time
12:43:21
Azimuth
Unknown
Elevation
Unknown
Doppler factor
Unknown
Orbital elements
Apogee altitude
671.953 km
Perigee altitude
667.047 km
Semi-major axis
7,047.637 km
Eccentricity
0.00035
Inclination
74.0194°
RAAN
19.5767°
Arg. of periapsis
60.1481°
True anomaly
299.96876°
Mean anomaly
300.0033°
Eccentric anomaly
299.98603°
Mean motion
3.66841 °/min
Orbital period
98.14 mins
BSTAR
0.0020519

Documentation

Showing up to 5 results
|